Regional Weather Roundup
Issued by NWS Sioux Falls, SD

Home | Current Version | Previous Version | Text Only | Print | Product List | Glossary Off
Versions: 1 2 3 4 5 6 7 8 9 10 11 12 13 14 15 16 17 18 19 20 21 22 23 24 25 26 27 28 29 30 31 32 33 34 35 36 37 38 39 40 41 42 43 44 45 46 47 48 49 50

000
ASUS43 KFSD 261102
RWRFSD

WEATHER ROUNDUP FOR SE SOUTH DAKOTA/SW MINNESOTA/NW IOWA
NATIONAL WEATHER SERVICE SIOUX FALLS SD
500 AM CST MON JAN 26 2015

NOTE: "FAIR" INDICATES FEW OR NO CLOUDS BELOW 12,000 FEET WITH NO
SIGNIFICANT WEATHER AND OR OBSTRUCTIONS TO VISIBILITY.


SDZ038>040-050-052>070-261200-
SOUTHEAST SOUTH DAKOTA

CITY           SKY/WX    TMP DP  RH WIND       PRES   REMARKS
CHAMBERLAIN    NOT AVBL
HURON          MOCLDY    33  29  85 W7        29.80R WCI  27
MADISON        FAIR      32  32 100 W15G22    29.76S WCI  22
MITCHELL       CLEAR     37  31  78 NW13      29.82S
SIOUX FALLS    PTCLDY    33  29  85 SW7       29.78F WCI  27
WINNER         FAIR      45  33  63 W17       29.90R
YANKTON        CLEAR     34  28  80 W7        29.83F WCI  28
$$

MNZ071-072-080-081-089-090-097-098-261200-
SOUTHWEST MINNESOTA

CITY           SKY/WX    TMP DP  RH WIND       PRES   REMARKS
FAIRMONT       CLOUDY    32  28  86 SW20      29.77F WCI  20
JACKSON        CLOUDY    32  32 100 S18       29.77F WCI  20
LUVERNE        MOCLDY    32  32 100 SW10      29.78F WCI  24
MARSHALL       CLOUDY    37  28  70 W25       29.72R
MONTEVIDEO     CLOUDY    36  36 100 W9        29.71S
PIPESTONE      MOCLDY    32  30  93 SW14      29.73F WCI  22
REDWOOD FALLS  MIX PCPN  34  31  88 SW25G33   29.67F WCI  21
TRACY          CLOUDY    36  32  87 SW23G29   29.71R
WINDOM         CLOUDY    34  32  93 S16G23    29.73F WCI  23
WORTHINGTON    CLOUDY    34  28  80 S14       29.76F WCI  24
$$

IAZ001>003-012>014-020>022-031-032-NEZ013-014-SDZ071-261200-
NORTHWEST IOWA

CITY           SKY/WX    TMP DP  RH WIND       PRES   REMARKS
ESTHERVILLE    CLOUDY    31  30  96 S15       29.81F WCI  20
SIOUX CITY     PTCLDY    33  29  85 S9        29.86F WCI  25
SPENCER        MIX PCPN  33  30  88 S8        29.83F WCI  26
$$

ABBREVIATIONS USED IN REMARKS
   TC - TEMPERATURE IN CELSIUS
  WCI - WIND CHILL INDEX
   HX - HEAT INDEX
  VSB - VISIBILITY




USA.gov is the U.S. government's official web portal to all federal, state and local government web resources and services.